GOMX 1 (39430 NORAD) Tracking and Keplerian Element Data

This shows tracking and keplerian element data for the satellite.

Feedback or suggestion? Click here.




ElementValue
Catalog39430
NameGOMX 1
Epoch Orbit26532
Epoch Day320.19875941
Epoch Year2018
RAAN286.2753
Inclination97.7157
Eccentricity0.0150343
Argument of Perigee210.409
Mean Anonmoly148.8323
Mean Motion14.59154447
Decay Rate1.51E-06
L11 39430U 13066Q 18320.19875941 .00000151 00000-0 36491-4 0 9997
L22 39430 97.7157 286.2753 0150343 210.4090 148.8323 14.59154447265323

Live tracking and technical data element details for GOMX 1 (NORAD 39430). GOMX 1 can be tracked NOW for your location showing map with azimuth and elevation plus other details from your city location.

Track the satellite on the map from your city or location and see movement details for azimuth, elevation, latitude, longitude, range, height, and movement on the map or in text.







IsCatalogInMostPopularTable: catalog: 39430, numindb: 142
Update: records affected: 1



GetName: 39430 GOMX 1

Hit Count: updated at: Fri, 16 Nov 2018 11:19:01 GMT